This is the latest recevied weather packets stored in our database for station/object F6BIJ-13. If no packets are shown the sender has not sent any weather packets the latest 10 day(s).
| Time | Temp. | Humidity | Pressure | Rain* | Wind** | Luminosity | Snow |
|---|---|---|---|---|---|---|---|
| 1777765717 | 15.56° C | 53% | 1019.3 hPa | 0 mm | - | - | - |
| 1777765357 | 15.56° C | 52% | 1019.2 hPa | 0 mm | - | - | - |
| 1777764997 | 15° C | 54% | 1019.2 hPa | 0 mm | - | - | - |
| 1777764637 | 15.56° C | 54% | 1019.3 hPa | 0 mm | - | - | - |
| 1777764277 | 15.56° C | 57% | 1019.3 hPa | 0 mm | - | - | - |
| 1777763916 | 14.44° C | 60% | 1019.3 hPa | 0 mm | - | - | - |
| 1777763557 | 15.56° C | 70% | 1019.3 hPa | 0 mm | - | - | - |
| 1777763197 | 15° C | 69% | 1019.1 hPa | 0 mm | - | - | - |
| 1777762837 | 15° C | 68% | 1019.1 hPa | 0 mm | - | - | - |
| 1777762477 | 15.56° C | 66% | 1019.2 hPa | 0 mm | - | - | - |
| 1777762116 | 14.44° C | 63% | 1019.1 hPa | 0 mm | - | - | - |
| 1777761757 | 15.56° C | 62% | 1019.2 hPa | 0 mm | - | - | - |
| 1777761397 | 15.56° C | 62% | 1019.2 hPa | 0 mm | - | - | - |
| 1777761037 | 15.56° C | 60% | 1019.2 hPa | 0 mm | - | - | - |
| 1777760677 | 15.56° C | 60% | 1019.2 hPa | 0 mm | - | - | - |
| 1777760317 | 15° C | 61% | 1019.3 hPa | 0 mm | - | - | - |
| 1777759957 | 15° C | 58% | 1019.3 hPa | 0 mm | - | - | - |
| 1777759597 | 15.56° C | 59% | 1019.3 hPa | 0 mm | - | - | - |
| 1777759237 | 15.56° C | 60% | 1019.4 hPa | 0 mm | - | - | - |
| 1777758877 | 15.56° C | 59% | 1019.5 hPa | 0 mm | - | - | - |
| 1777758516 | 15.56° C | 57% | 1019.4 hPa | 0 mm | - | - | - |
| 1777758157 | 15.56° C | 58% | 1019.5 hPa | 0 mm | - | - | - |
| 1777757797 | 16.11° C | 58% | 1019.4 hPa | 0 mm | - | - | - |
| 1777757437 | 16.11° C | 58% | 1019.3 hPa | 0 mm | - | - | - |
| 1777757076 | 16.11° C | 58% | 1019.3 hPa | 0 mm | - | - | - |
* Rain latest 24 hours (hover to see other rain measurements)
** Current wind speed in m/s (hover to see current wind gust speed)